Regional Weather Roundup
Issued by NWS

Home | Current Version | Previous Version | Graphics & Text | Print | Product List | Glossary On
Versions: 1 2 3 4 5 6 7 8 9 10 11 12 13 14 15 16 17 18 19 20 21 22 23 24 25 26 27 28 29 30 31 32 33 34 35 36 37 38 39 40 41 42 43 44 45 46 47 48 49 50
000
ASUS43 KBIS 181559
RWRND

NORTH DAKOTA REGIONAL WEATHER ROUNDUP
NATIONAL WEATHER SERVICE BISMARCK ND
1000 AM CST THU DEC 18 2014

NOTE: "FAIR" INDICATES FEW OR NO CLOUDS BELOW 12,000 FEET WITH NO
SIGNIFICANT WEATHER AND/OR OBSTRUCTIONS TO VISIBILITY.


NDZ001>003-009>011-017-181700-
NORTHWEST NORTH DAKOTA

CITY           SKY/WX    TMP DP  RH WIND       PRES   REMARKS
WILLISTON      CLOUDY    22  18  85 S3        30.00S
MINOT          CLOUDY    19  14  81 SE8       30.05S WCI   9
MINOT AFB      CLOUDY    17  17  99 SE6       30.05S WCI   9
$$

NDZ018>021-031>035-040>046-181700-
SOUTHWEST NORTH DAKOTA

CITY           SKY/WX    TMP DP  RH WIND       PRES   REMARKS
BISMARCK       CLOUDY    19  17  92 SE9       30.09S WCI   8
GARRISON         N/A     19  17  92 S8        30.04S WCI   9
HETTINGER ARPT CLOUDY    24  22  91 S6        29.99R WCI  17
$$

NDZ004>008-012>016-024-026-027-054-181700-
NORTHEAST NORTH DAKOTA

CITY           SKY/WX    TMP DP  RH WIND       PRES   REMARKS
GRAND FORKS    CLOUDY    11   8  88 S7        30.24S WCI   0
GRND FRKS AFB  CLOUDY    11  11  99 S6        30.23S WCI   2
DEVILS LAKE    CLOUDY    16   7  67 S12       30.12S WCI   3
$$

NDZ022-023-025-028>030-036>039-047>053-181700-
SOUTHEAST NORTH DAKOTA

CITY           SKY/WX    TMP DP  RH WIND       PRES   REMARKS
FARGO          MOSUNNY   14   9  80 SE9       30.25S WCI   2
JAMESTOWN      CLOUDY    17  13  84 S8        30.15R WCI   7
$$




USA.gov is the U.S. government's official web portal to all federal, state and local government web resources and services.